[[{"header":{"parameterUnit":"m.s-1","parameterCategory":1,"la1":30.2991,"la2":30.254,"lo1":-89.0895,"lo2":-89.0444,"dy":0.0017,"dx":0.0017,"nx":28,"ny":28,"refTime":"2023-09-18T21:00:00:Z","depth":0,"parameterNumber":2,"parameterNumberName":"U-component_of_WINDS"},"data":[0,0,0,0,0,0,0,0,0,0,0,0,0,0,0,0,0,0,0,0,0,0,0,0,0,0,0,0,0,0,0,0,0,0,0,0,0,0,0,0,0,0,0,0,0,0,0,0,0,0,0,0,0,0,0,0,0,0,0.9136,0.9137,0,0.9215,0.9216,0.9217,0.9219,0.9218,0.9217,0.9217,0.9297,0.93,0.9303,0,0,0,0,0,0,0,0,0,0,0,0,0,0.8984,0.8987,0.9136,0.9137,0.9138,0.9215,0.9216,0.9217,0.922,0.9218,0.9217,0.9216,0.9296,0.93,0.9304,0,0,0,0,0,0,0,0,0,0,0,0,0,0.9055,0.8988,0.9135,0.9148,0.915,0.9215,0.9216,0.9217,0.922,0.9218,0.9217,0.9216,0.9295,0.93,0.9304,0.9361,0,0,0.9318,0.932,0,0,0,0,0,0,0,0,0.9051,0.9061,0.9145,0.9147,0.915,0.9206,0.9192,0.9266,0.922,0.9193,0.9216,0.9215,0.9268,0.9275,0.9293,0.9365,0.9368,0.9318,0.9321,0.9323,0.9324,0,0,0,0,0,0,0,0.9046,0.9058,0.9167,0.9146,0.9149,0.9149,0.9158,0.9206,0.9238,0.9196,0.9196,0.9205,0.9269,0.9288,0.9295,0.937,0.9318,0.9322,0.9325,0.9327,0.949,0.9492,0,0,0,0,0,0,0.9039,0.9053,0.9164,0.9169,0.9096,0.9153,0.9163,0.9189,0.9237,0.9243,0.9206,0.9205,0.9281,0.9289,0.9298,0.9366,0.9323,0.9327,0.933,0.9489,0.9491,0.9493,0,0,0,0,0,0,0.9036,0.9049,0.9161,0.9112,0.9126,0.9157,0.9187,0.9192,0.9211,0.9246,0.9251,0.9221,0.928,0.9291,0.9345,0.9369,0.9329,0.9334,0.9487,0.9489,0.9492,0.9504,0,0,0,0,0,0,0.9032,0.9048,0.907,0.9112,0.9129,0.9208,0.9189,0.9194,0.9219,0.9218,0.926,0.9266,0.928,0.9338,0.9349,0.9374,0.9337,0.9485,0.9488,0.9491,0.9501,0.9506,0.951,0,0,0,0,0,0.9026,0.9071,0.9071,0.9085,0.9157,0.9209,0.9219,0.9234,0.9221,0.9243,0.9265,0.9264,0.9365,0.9344,0.9356,0.9383,0.9484,0.9487,0.9491,0.9499,0.9505,0.951,0,0,0,0,0,0,0.9031,0.9077,0.9078,0.9137,0.9169,0.9209,0.9238,0.924,0.9277,0.9274,0.9292,0.9301,0.9354,0.9374,0.935,0.944,0.9422,0.9429,0.9424,0.943,0.9435,0.9428,0.9341,0,0,0,0,0,0.9039,0.9078,0.9116,0.9164,0.918,0.9207,0.923,0.9239,0.9273,0.9286,0.9312,0.9345,0.9383,0.9408,0.9446,0.9505,0.9513,0.9529,0.9534,0.9537,0.9542,0.9572,0.9579,0.9504,0.9504,0.9504,0,0,0.9056,0.9086,0.9109,0.9166,0.9192,0.9231,0.9218,0.926,0.9288,0.9293,0.9344,0.9365,0.9402,0.9458,0.9484,0.9476,0.9565,0.9542,0.9544,0.9547,0.9577,0.9584,0.959,0.9507,0.9506,0.9506,0,0,0.9106,0.9133,0.9176,0.9202,0.9241,0.9258,0.9269,0.9308,0.9322,0.9374,0.9377,0.9412,0.9478,0.9504,0.9526,0.9585,0.9585,0.9597,0.962,0.9649,0.9655,0.966,0.9679,0.9686,0.9602,0.9602,0.9602,0,0.9122,0.9181,0.9198,0.9239,0.9263,0.9269,0.9312,0.9336,0.9386,0.9402,0.9393,0.9475,0.9501,0.9562,0.9576,0.9595,0.9605,0.9591,0.9653,0.9659,0.9664,0.9682,0.9689,0.9603,0.9603,0.9603,0.9603,0,0.9197,0.9238,0.9268,0.9315,0.9343,0.9385,0.9407,0.9433,0.944,0.9458,0.951,0.9541,0.9584,0.96,0.9607,0.9661,0.9655,0.965,0.9632,0.9672,0.9689,0.9696,0.9604,0.9604,0.9604,0.9603,0,0,0.9252,0.9307,0.9318,0.9338,0.9382,0.9413,0.9455,0.9497,0.9518,0.9552,0.9587,0.9642,0.9637,0.9662,0.9672,0.9698,0.974,0.9689,0.9691,0.9696,0.9799,0.9802,0.981,0.9741,0.9743,0.9744,0.9795,0,0.9305,0.9379,0.9395,0.9459,0.9496,0.9501,0.9538,0.9568,0.9585,0.9619,0.9638,0.9676,0.9668,0.9682,0.9709,0.973,0.9761,0.9726,0.9772,0.9773,0.976,0.9819,0.9822,0.9869,0.9803,0.9804,0.9805,0,0.9377,0.9411,0.9479,0.9516,0.9532,0.9564,0.9603,0.9636,0.9669,0.968,0.9707,0.9715,0.9757,0.9739,0.9797,0.9773,0.9793,0.9806,0.9808,0.9811,0.979,0.9822,0.9885,0.9891,0.9816,0.9815,0.9814,0,0.9407,0.9471,0.9519,0.9537,0.9582,0.9604,0.9624,0.9656,0.968,0.9714,0.9729,0.9768,0.9789,0.9818,0.9835,0.9821,0.9891,0.9875,0.99,0.9899,0.9913,0.9912,0.9978,0.9929,0.9929,0.9929,0.9929,0,0.9463,0.9503,0.9533,0.9562,0.9607,0.9625,0.9669,0.9689,0.9717,0.975,0.9758,0.9788,0.981,0.9843,0.9857,0.9901,0.9911,0.992,0.9923,0.9918,0.9917,0.993,0.9926,0.9931,0.993,0.993,0.993,0,0.9503,0.9525,0.9577,0.9616,0.9626,0.9658,0.969,0.9718,0.9736,0.9777,0.9788,0.9815,0.9854,0.9875,0.9924,0.9933,0.9982,0.9984,0.9971,0.9971,0.9994,0.9991,1.007,1.008,1.0026,1.0027,1.0027,0,0.9537,0.9568,0.9609,0.9632,0.9652,0.9688,0.9712,0.9731,0.9756,0.9796,0.9819,0.9858,0.9891,0.9953,0.9977,1.0014,1.0015,1.0041,1.0021,1.0015,1.0013,1.001,1.0013,1.0043,1.0044,1.0044,1.0045,0,0.9593,0.9602,0.9637,0.9675,0.9703,0.9734,0.9765,0.9782,0.9806,0.9833,0.9873,0.9898,0.9948,0.9986,1.0025,1.0045,1.0048,1.0051,1.0058,1.0053,1.0042,1.0046,0.9978,1.0048,1.0048,1.0048,1.0048,1.0047,0.963,0.9657,0.969,0.9728,0.9753,0.9781,0.9808,0.983,0.9863,0.9905,0.9914,0.9956,0.9988,1.004,1.0061,1.0093,1.0088,1.0099,1.0102,1.0103,1.0103,1.0039,1.0101,1.0101,1.01,1.01,1.01,0,0.9684,0.9706,0.9741,0.9783,0.9812,0.9814,0.9847,0.9871,0.9908,0.9938,0.9969,1.0014,1.0051,1.0078,1.0116,1.0136,1.0139,1.0145,1.0143,1.0147,1.0107,1.0096,1.0143,1.0143,1.0143,1.0143,1.0143,1.0143,0.9716,0.9762,0.9774,0.9832,0.9853,0.9894,0.9913,0.9938,0.9962,1.0011,1.0042,1.006,1.0088,1.0127,1.0161,1.0168,1.018,1.0187,1.0193,1.0155,1.015,1.0146,1.0135,1.019,1.019,1.0231,1.0231,1.0231]},{"header":{"parameterUnit":"m.s-1","parameterCategory":1,"la1":30.2991,"la2":30.254,"lo1":-89.0895,"lo2":-89.0444,"dy":0.0017,"dx":0.0017,"nx":28,"ny":28,"refTime":"2023-09-18T21:00:00:Z","depth":0,"parameterNumber":3,"parameterNumberName":"V-component_of_WINDS"},"data":[0,0,0,0,0,0,0,0,0,0,0,0,0,0,0,0,0,0,0,0,0,0,0,0,0,0,0,0,0,0,0,0,0,0,0,0,0,0,0,0,0,0,0,0,0,0,0,0,0,0,0,0,0,0,0,0,0,0,2.6082,2.6081,0,2.5922,2.592,2.5918,2.5819,2.5819,2.5819,2.5818,2.5643,2.5639,2.5635,0,0,0,0,0,0,0,0,0,0,0,0,0,2.6295,2.6292,2.6083,2.6081,2.6079,2.5922,2.592,2.5917,2.582,2.5819,2.5818,2.5818,2.5645,2.564,2.5635,0,0,0,0,0,0,0,0,0,0,0,0,0,2.6175,2.6291,2.6083,2.6011,2.6003,2.5922,2.592,2.5917,2.582,2.5819,2.5818,2.5818,2.5646,2.564,2.5634,2.5609,0,0,2.5615,2.5612,0,0,0,0,0,0,0,0,2.6182,2.6168,2.6024,2.6016,2.6007,2.589,2.593,2.5813,2.582,2.5889,2.5818,2.5817,2.5725,2.5712,2.5683,2.5601,2.5593,2.5614,2.561,2.5608,2.5606,0,0,0,0,0,0,0,2.6191,2.6174,2.6019,2.6022,2.6011,2.5984,2.5966,2.5908,2.5813,2.5883,2.5875,2.5858,2.572,2.569,2.5679,2.5591,2.5614,2.5609,2.5605,2.5602,2.5476,2.5476,0,0,0,0,0,0,2.6212,2.6182,2.6024,2.6014,2.6095,2.598,2.5961,2.5928,2.5813,2.5795,2.5859,2.5854,2.5701,2.5686,2.5672,2.5633,2.5608,2.5602,2.5598,2.5475,2.5476,2.5476,0,0,0,0,0,0,2.6217,2.6199,2.603,2.6096,2.6072,2.5978,2.5942,2.5925,2.5895,2.5795,2.5777,2.5846,2.57,2.5681,2.5625,2.5625,2.5599,2.5593,2.5475,2.5475,2.5476,2.5556,0,0,0,0,0,0,2.6223,2.6201,2.6193,2.6096,2.6069,2.599,2.5942,2.5923,2.5885,2.5877,2.5778,2.5761,2.5698,2.5635,2.5619,2.5616,2.5588,2.5474,2.5475,2.5476,2.5552,2.5559,2.5564,0,0,0,0,0,2.6231,2.6221,2.6193,2.6175,2.6058,2.599,2.5974,2.5905,2.5886,2.5875,2.5811,2.5764,2.5629,2.5631,2.5611,2.5607,2.5474,2.5475,2.5476,2.555,2.5558,2.5564,0,0,0,0,0,0,2.6317,2.6207,2.6175,2.6133,2.6072,2.5974,2.5958,2.5915,2.5856,2.585,2.5764,2.5742,2.5694,2.5645,2.5649,2.5574,2.5545,2.5543,2.5609,2.5615,2.5621,2.5633,2.5583,0,0,0,0,0,2.6332,2.6289,2.6193,2.6165,2.6137,2.6053,2.6021,2.5973,2.5905,2.5877,2.5809,2.5742,2.5683,2.5647,2.5588,2.5546,2.552,2.5533,2.5539,2.5544,2.5542,2.5512,2.5515,2.5479,2.5479,2.5479,0,0,2.636,2.6294,2.6272,2.6181,2.6128,2.6082,2.6032,2.5986,2.595,2.5869,2.5812,2.576,2.5679,2.5629,2.5604,2.5586,2.5546,2.5545,2.555,2.5544,2.5513,2.5517,2.552,2.548,2.548,2.548,0,0,2.6387,2.6336,2.6305,2.6254,2.6175,2.6119,2.6112,2.602,2.5983,2.5926,2.5864,2.5818,2.5721,2.5665,2.5623,2.563,2.5583,2.5613,2.5643,2.5615,2.5618,2.562,2.5619,2.562,2.5612,2.5612,2.5612,0,2.6432,2.6364,2.6294,2.6252,2.6212,2.6141,2.6107,2.6059,2.5964,2.5937,2.592,2.5795,2.5736,2.567,2.5672,2.5642,2.5628,2.5623,2.5624,2.5625,2.5626,2.5624,2.5624,2.5616,2.5615,2.5615,2.5614,0,2.642,2.6374,2.6358,2.6271,2.623,2.6192,2.6114,2.608,2.6036,2.5981,2.5922,2.5848,2.5772,2.5753,2.5709,2.5681,2.5672,2.5641,2.561,2.5635,2.5631,2.563,2.5621,2.562,2.5619,2.5618,0,0,2.6495,2.6372,2.6367,2.6325,2.6233,2.6194,2.6152,2.6081,2.6052,2.5988,2.5948,2.5868,2.5838,2.5791,2.574,2.5716,2.5722,2.5686,2.5683,2.5693,2.5683,2.5705,2.5706,2.5692,2.5691,2.5691,2.5688,0,2.6507,2.6431,2.6368,2.6314,2.6268,2.6199,2.6162,2.6099,2.6047,2.5997,2.5938,2.5881,2.5848,2.5819,2.5793,2.5727,2.5718,2.5727,2.5649,2.5647,2.567,2.5704,2.5728,2.5729,2.5687,2.5687,2.5687,0,2.651,2.6453,2.6395,2.6307,2.6285,2.6253,2.6181,2.6137,2.6063,2.6026,2.5975,2.5922,2.587,2.5846,2.5771,2.5779,2.5743,2.5706,2.5704,2.5692,2.5667,2.569,2.5728,2.5728,2.5684,2.5685,2.5685,0,2.6567,2.6475,2.6428,2.6395,2.6292,2.627,2.6225,2.6152,2.6112,2.6049,2.6022,2.5953,2.5914,2.586,2.5787,2.5777,2.5719,2.569,2.5683,2.5685,2.5672,2.5673,2.5702,2.5654,2.5654,2.5655,2.5655,0,2.6585,2.6552,2.6452,2.6423,2.6383,2.6309,2.627,2.6218,2.6153,2.611,2.6046,2.6006,2.5915,2.5863,2.5806,2.5751,2.5734,2.57,2.5684,2.5704,2.5708,2.5678,2.5674,2.5654,2.5654,2.5654,2.5654,0,2.6641,2.6574,2.6517,2.6425,2.64,2.6374,2.6293,2.626,2.6205,2.6151,2.6133,2.6045,2.5981,2.5905,2.5814,2.5776,2.5724,2.5703,2.575,2.5741,2.5738,2.5739,2.5746,2.5742,2.5701,2.5701,2.5701,0,2.6656,2.6629,2.6534,2.6502,2.646,2.6409,2.6369,2.6295,2.6255,2.617,2.6146,2.6078,2.6019,2.5918,2.5843,2.5773,2.5748,2.5756,2.5737,2.5757,2.5744,2.5746,2.5741,2.576,2.5761,2.5761,2.5762,0,2.6688,2.6656,2.6603,2.6538,2.6493,2.6438,2.6379,2.6356,2.6268,2.6227,2.6162,2.6117,2.6026,2.5957,2.5878,2.5827,2.5778,2.5769,2.5763,2.5782,2.5809,2.5791,2.5761,2.5768,2.5768,2.5767,2.5767,2.5767,2.6721,2.6693,2.6622,2.6564,2.6513,2.646,2.6424,2.6366,2.6311,2.6234,2.6192,2.6127,2.6052,2.5941,2.5892,2.5838,2.5821,2.5814,2.5811,2.581,2.5814,2.5821,2.5823,2.5823,2.5823,2.5822,2.5822,0,2.6747,2.6698,2.6646,2.6568,2.6522,2.6485,2.6418,2.6381,2.6326,2.6262,2.6206,2.6129,2.6062,2.5984,2.591,2.5882,2.5858,2.5865,2.5864,2.5853,2.5835,2.5846,2.5886,2.5886,2.5886,2.5886,2.5886,2.5886,2.6755,2.6705,2.6665,2.6588,2.6538,2.6477,2.6441,2.6391,2.6339,2.6258,2.6204,2.6154,2.6082,2.6004,2.5939,2.5917,2.5892,2.5905,2.5876,2.586,2.5855,2.5849,2.5859,2.5901,2.5901,2.5899,2.5899,2.5899]}]]